Regional Weather Roundup
Issued by NWS Charleston, SC

Current Version | Previous Version | Graphics & Text | Print | Product List | Glossary On
Versions: 1 2 3 4 5 6 7 8 9 10 11 12 13 14 15 16 17 18 19 20 21 22 23 24 25 26 27 28 29 30 31 32 33 34 35 36 37 38 39 40 41 42 43 44 45 46 47 48 49 50
000
ASUS42 KCHS 211412
RWRCHS

REGIONAL WEATHER ROUNDUP
NATIONAL WEATHER SERVICE CHARLESTON SC
1000 AM EDT SAT OCT 21 2017

NOTE: "FAIR" INDICATES FEW OR NO CLOUDS BELOW 12,000 FEET WITH NO
SIGNIFICANT WEATHER AND/OR OBSTRUCTIONS TO VISIBILITY.

NOT ALL STATIONS ARE QUALITY CONTROLLED. USE DATA WITH CAUTION...
ESPECIALLY DEWPOINT OBSERVATIONS.

SCZ027-030-031-034>040-042>050-211500-
...SOUTHEAST SOUTH CAROLINA...

CITY           SKY/WX    TMP DP  RH WIND       PRES   REMARKS
N CHARLESTON   MOSUNNY   69  60  73 NE7       30.30R
WATERFRONT PRK NOT AVBL
JOHNS ISLAND   FAIR      72  63  73 N6        30.30R
PINOPOLIS        N/A     64  61  88 NE5       30.23R
MONCKS CORNER  FAIR      66  59  77 N6        30.31S
SUMMERVILLE    FAIR      63  61  94 NE3       30.32R
BEAUFORT MCAS  SUNNY     71  62  73 MISG      30.29R
BEAUFORT ARPT  FAIR      70  61  73 NE8       30.29R
HILTON HEAD IS SUNNY     72  63  73 N8          N/A
WALTERBORO     SUNNY     66  61  82 CALM      30.31S
ALLENDALE        N/A     66  59  77 N5          N/A

...SOUTHERN MIDLANDS AND PEE DEE...

CITY           SKY/WX    TMP DP  RH WIND       PRES   REMARKS
GEORGETOWN     FAIR      68  61  77 N5        30.32S
KINGSTREE      FAIR      64  59  82 CALM      30.32S
ORANGEBURG     SUNNY     67  58  72 CALM      30.32R
BARNWELL         N/A     66  59  77 CALM      30.32R
AIKEN          FAIR      64  59  82 CALM      30.35
MANNING        HAZE      64  52  63 MISG      30.32S VSB<1/4
COLUMBIA       PTSUNNY   61  55  81 CALM      30.32R
SUMTER         CLOUDY    65  58  77 CALM      30.30R
FLORENCE       SUNNY     66  56  70 CALM      30.33R
MYRTLE BEACH   SUNNY     69  58  67 N8        30.33R
N MYRTLE BEACH SUNNY     69  58  67 N7        30.32R

$$

GAZ063-065-086>088-099>101-113>116-118-119-134>141-150-211500-
...SOUTHEAST GEORGIA...

CITY           SKY/WX    TMP DP  RH WIND       PRES   REMARKS
SAVANNAH ARPT  MOSUNNY   72  64  76 NE8       30.28R
HUNTER AAF     CLOUDY    72  64  74 NE5       30.25R
FORT STEWART   CLOUDY    70  62  77 NE7       30.25R
STATESBORO     CLOUDY    66  58  74 CALM      30.30R
SYLVANIA       SUNNY     66  61  84 E3        30.31R
CLAXTON        FAIR      68  63  84 N5        30.28S

...CSRA...CENTRAL AND FAR SOUTHEAST GEORGIA...

CITY           SKY/WX    TMP DP  RH WIND       PRES   REMARKS
THOMSON        CLOUDY    60  53  75 CALM      30.37S
AUGUSTA-BUSH   MOSUNNY   63  57  81 CALM      30.31R
AUGUSTA-DANIEL SUNNY     66  58  75 CALM      30.32R
SWAINSBORO     FAIR      63  61  94 MISG      30.30S
VIDALIA        MOSUNNY   64  61  88 E5        30.28S
EASTMAN        FAIR      69  50  50 E3        30.30S
HAZLEHURST     FAIR      67  57  72 E5        30.26S
ALMA           CLOUDY    71  63  75 VRB3      30.25R
WAYCROSS       SUNNY     73  64  73 E8        30.24R
JESUP          NOT AVBL
BAXLEY         FAIR      68  64  88 E8        30.25S
BRUNSWICK      SUNNY     73  66  78 NE12G18   30.25R
SAINT SIMONS   MOSUNNY   77  69  76 NE12      30.23R

$$

SCZ027-028-034-036>038-045-046-048>050-GAZ119-141-211500-
...LAKE AND SUPPLEMENTAL COASTAL OBSERVATIONS...

STATION/POSITION TIME  TEMP    WIND        PRES    WAVE   SWELL
                       AIR SEA DIR/SP/G            HT/PER HT/PER/DIR
                 (UTC) (F)     (DEG/KT/KT) (MB)    (FT/S) (FT/S/D)
WINYAH BAY       1245   63     350/  6     1026.0
LAKE MURRAY      1320   62      CALM  /  1 1026.1R
ACE BASIN NERRS  1245   60     360/  1     1025.0
FORT PULASKI     1336   72 73   40/  7/  9 1025.3R
SAPELO ISLAND    NOT AVBL

$$

ANZ835-935-AMZ111-154-330-350-352-354-370-450-454-472-211500-
...C-MAN AND BUOY OBSERVATIONS...

STATION/POSITION TIME  TEMP    WIND        PRES    WAVE   SWELL
                       AIR SEA DIR/SP/G            HT/PER HT/PER/DIR
                 (UTC) (F)     (DEG/KT/KT) (MB)    (FT/S) (FT/S/D)
BUOY 41004       1350   76 81   40/ 14/ 17 1024.6R   3/ 9   2/110/ 9
BUOY 41008       1350   76 77   50/ 17/ 21 1023.4R   4/ 8   2/120/ 8
FOLLY BEACH CMAN 1300   69     360/  6/  8 1026.0R
CAPERS NEARSHORE 1308   69 73   30/ 10/ 16 1025.2R
FRIPP NEARSHORE  1308   72      30/ 12/ 14   N/A


STATION/POSITION TIME  TEMP    WIND        PRES    WAVE   SWELL
                       AIR SEA DIR/SP/G            HT/PER HT/PER/DIR
                 (UTC) (F)     (DEG/KT/KT) (MB)    (FT/S) (FT/S/D)
5E ST. MARYS GA  1330      77                N/A     4/ 5
FRYING PAN BUOY  1350   74 76   50/ 10/ 14 1025.6R   3/ 8   3/100/ 8
BUOY 41025       1350   73 80  360/ 14/ 16 1026.3R   3/ 8   2/140/ 8
CAPE LOOKOUT NC  1300   67      10/  9/ 11 1026.3R
BUOY 41002       1350   77 80   70/ 12/ 16 1024.5R   4/ 9   3/ 90/ 9
BUOY 41010       NOT AVBL
ST AUGUSTINE FL  1400   79 77   80/ 13/ 15 1023.1R


$$




USA.gov is the U.S. government's official web portal to all federal, state and local government web resources and services.